FW9226 Weather Reports


Display with metric or nautical units.
time (UTC)temp
F
wind
direction
speed
MPH
gust
MPH
rain 1hr
in
rain 24hr
in
rain mn
in
humidity
%
barometer
mb
20260906190002 72 217 3.0 10.0 0.00 0.00 0.00 41 1017.8
20260906185503 73 231 3.0 10.0 0.00 0.00 0.00 41 1017.8
20260906185005 73 242 2.0 7.0 0.00 0.00 0.00 40 1017.8
20260906184504 73 252 2.0 13.0 0.00 0.00 0.00 40 1017.8
20260906184003 72 306 3.0 13.0 0.00 0.00 0.00 41 1017.7
20260906183503 72 209 2.0 9.0 0.00 0.00 0.00 41 1017.7
20260906183004 73 76 2.0 6.0 0.00 0.00 0.00 40 1017.7
20260906182505 72 267 3.0 8.0 0.00 0.00 0.00 42 1017.8
20260906182004 71 205 2.0 9.0 0.00 0.00 0.00 43 1017.8
20260906181503 71 316 2.0 7.0 0.00 0.00 0.00 42 1017.8
20260906181007 71 240 2.0 7.0 0.00 0.00 0.00 43 1017.8
20260906180502 70 193 2.0 7.0 0.00 0.00 0.00 44 1017.8
20260906180007 70 210 2.0 7.0 0.00 0.00 0.00 43 1017.8
20260906175501 69 127 3.0 10.0 0.00 0.00 0.00 44 1017.8
20260906175003 69 141 3.0 10.0 0.00 0.00 0.00 43 1017.8
20260906174500 70 118 2.0 6.0 0.00 0.00 0.00 42 1017.8
20260906173503 70 123 2.0 7.0 0.00 0.00 0.00 44 1017.7
20260906172004 69 210 2.0 7.0 0.00 0.00 0.00 44 1017.7
20260906171504 68 146 2.0 7.0 0.00 0.00 0.00 46 1017.7
20260906171001 68 207 3.0 6.0 0.00 0.00 0.00 45 1017.7
20260906170503 68 144 2.0 8.0 0.00 0.00 0.00 45 1017.7
20260906170002 68 97 2.0 5.0 0.00 0.00 0.00 45 1017.7
20260906165503 68 135 2.0 5.0 0.00 0.00 0.00 46 1017.7
20260906165005 68 113 1.0 6.0 0.00 0.00 0.00 46 1017.8
20260906164506 68 230 2.0 7.0 0.00 0.00 0.00 47 1017.7
20260906164004 67 132 3.0 7.0 0.00 0.00 0.00 47 1017.7
20260906163504 67 247 2.0 6.0 0.00 0.00 0.00 48 1017.7
20260906163006 67 212 2.0 7.0 0.00 0.00 0.00 47 1017.8
20260906162504 67 196 1.0 5.0 0.00 0.00 0.00 49 1017.8
20260906162005 66 38 1.0 4.0 0.00 0.00 0.00 48 1017.7
20260906161503 65 195 2.0 4.0 0.00 0.00 0.00 49 1017.8
20260906160007 64 139 1.0 4.0 0.00 0.00 0.00 54 1017.7
20260906155505 63 142 1.0 4.0 0.00 0.00 0.00 54 1017.9
20260906154503 62 132 1.0 4.0 0.00 0.00 0.00 57 1017.8
20260906153503 61 158 1.0 3.0 0.00 0.00 0.00 58 1017.9
20260906152504 60 141 1.0 5.0 0.00 0.00 0.00 59 1017.9
20260906152002 60 136 1.0 5.0 0.00 0.00 0.00 59 1017.8
20260906151504 59 83 0.0 4.0 0.00 0.00 0.00 62 1017.8
20260906151003 59 151 0.0 4.0 0.00 0.00 0.00 62 1017.9
20260906150503 58 133 0.0 1.0 0.00 0.00 0.00 64 1017.7
20260906150007 58 143 0.0 2.0 0.00 0.00 0.00 62 1017.7
20260906145500 57 143 0.0 1.0 0.00 0.00 0.00 64 1017.6
20260906145003 57 139 0.0 0.0 0.00 0.00 0.00 64 1017.5
20260906144504 57 139 0.0 0.0 0.00 0.00 0.00 63 1017.4
20260906144005 58 139 0.0 0.0 0.00 0.00 0.00 62 1017.4
20260906143505 58 139 0.0 0.0 0.00 0.00 0.00 62 1017.4
20260906143008 57 139 0.0 0.0 0.00 0.00 0.00 63 1017.4
20260906142007 54 139 0.0 0.0 0.00 0.00 0.00 66 1017.2
20260906141504 54 139 0.0 0.0 0.00 0.00 0.00 67 1017.2
20260906141006 54 139 0.0 0.0 0.00 0.00 0.00 67 1017.2
20260906140505 54 139 0.0 0.0 0.00 0.00 0.00 67 1017.2
20260906140009 54 139 0.0 0.0 0.00 0.00 0.00 67 1017.1
20260906135504 53 139 0.0 0.0 0.00 0.00 0.00 67 1017.0
20260906135005 53 139 0.0 0.0 0.00 0.00 0.00 68 1016.9
20260906133506 53 139 0.0 0.0 0.00 0.00 0.00 69 1016.9
20260906133006 53 139 0.0 0.0 0.00 0.00 0.00 69 1016.9
20260906132506 53 139 0.0 0.0 0.00 0.00 0.00 68 1016.9
20260906132004 53 139 0.0 0.0 0.00 0.00 0.00 68 1016.8
20260906131005 53 139 0.0 1.0 0.00 0.00 0.00 69 1016.8
20260906130509 54 139 0.0 1.0 0.00 0.00 0.00 68 1016.7
20260906130007 54 139 0.0 1.0 0.00 0.00 0.00 67 1016.8
20260906125505 54 139 0.0 1.0 0.00 0.00 0.00 67 1016.6
20260906125007 54 139 0.0 1.0 0.00 0.00 0.00 67 1016.6
20260906124005 54 139 0.0 1.0 0.00 0.00 0.00 67 1016.7
20260906123506 54 139 0.0 0.0 0.00 0.00 0.00 67 1016.7
20260906123005 55 139 0.0 0.0 0.00 0.00 0.00 66 1016.8
20260906122509 55 139 0.0 0.0 0.00 0.00 0.00 66 1016.8
20260906121503 55 139 0.0 2.0 0.00 0.00 0.00 65 1016.7
20260906121003 55 139 0.0 2.0 0.00 0.00 0.00 65 1016.9
20260906120505 55 159 0.0 1.0 0.00 0.00 0.00 66 1016.9
20260906120007 55 155 0.0 0.0 0.00 0.00 0.00 66 1016.8
20260906115504 55 155 0.0 0.0 0.00 0.00 0.00 66 1016.8
20260906114504 55 129 0.0 3.0 0.00 0.00 0.00 67 1016.8
20260906114006 54 150 0.0 0.0 0.00 0.00 0.00 67 1016.9
20260906113503 54 112 0.0 1.0 0.00 0.00 0.00 68 1016.9
20260906113005 54 112 0.0 1.0 0.00 0.00 0.00 68 1016.8
20260906112503 54 108 0.0 0.0 0.00 0.00 0.00 68 1016.8
20260906112003 54 108 0.0 0.0 0.00 0.00 0.00 69 1016.9
20260906111006 53 108 0.0 0.0 0.00 0.00 0.00 69 1016.8
20260906110502 53 108 0.0 0.0 0.00 0.00 0.00 69 1016.9
20260906110011 53 108 0.0 0.0 0.00 0.00 0.00 69 1016.9
20260906105506 53 108 0.0 0.0 0.00 0.00 0.00 69 1016.9
20260906105007 54 108 0.0 0.0 0.00 0.00 0.00 69 1016.9
20260906104505 54 108 0.0 0.0 0.00 0.00 0.00 68 1017.0
20260906104006 54 108 0.0 0.0 0.00 0.00 0.00 68 1017.0
20260906103505 54 108 0.0 0.0 0.00 0.00 0.00 68 1016.9
20260906103006 54 108 0.0 0.0 0.00 0.00 0.00 67 1016.9
20260906102504 54 108 0.0 0.0 0.00 0.00 0.00 67 1016.9
20260906102005 54 108 0.0 0.0 0.00 0.00 0.00 68 1016.9
20260906101502 54 108 0.0 0.0 0.00 0.00 0.00 68 1016.9
20260906101004 54 108 0.0 0.0 0.00 0.00 0.00 68 1016.9
20260906100503 54 108 0.0 0.0 0.00 0.00 0.00 69 1017.1
20260906100008 54 108 0.0 0.0 0.00 0.00 0.00 69 1017.0
20260906095504 54 108 0.0 0.0 0.00 0.00 0.00 69 1017.1
20260906095005 54 108 0.0 0.0 0.00 0.00 0.00 69 1017.2
20260906094005 53 108 0.0 1.0 0.00 0.00 0.00 70 1017.2
20260906093505 54 108 0.0 1.0 0.00 0.00 0.00 70 1017.2
20260906093005 53 108 0.0 0.0 0.00 0.00 0.00 70 1017.3
20260906092504 54 108 0.0 0.0 0.00 0.00 0.00 70 1017.4
20260906091504 53 108 0.0 0.0 0.00 0.00 0.00 70 1017.5
20260906091005 54 108 0.0 0.0 0.00 0.00 0.00 70 1017.4
20260906090011 54 108 0.0 1.0 0.00 0.00 0.00 70 1017.4
20260906085506 54 108 0.0 1.0 0.00 0.00 0.00 71 1017.4
20260906084504 53 108 0.0 0.0 0.00 0.00 0.00 72 1017.5
20260906084003 53 108 0.0 0.0 0.00 0.00 0.00 72 1017.4
20260906083501 53 108 0.0 0.0 0.00 0.00 0.00 72 1017.4
20260906083006 53 108 0.0 0.0 0.00 0.00 0.00 72 1017.5
20260906082504 53 108 0.0 1.0 0.00 0.00 0.00 73 1017.5
20260906082003 53 108 0.0 1.0 0.00 0.00 0.00 73 1017.5
20260906081004 52 108 0.0 1.0 0.00 0.00 0.00 74 1017.4
20260906080503 52 108 0.0 0.0 0.00 0.00 0.00 75 1017.4
20260906080007 52 108 0.0 0.0 0.00 0.00 0.00 75 1017.3
20260906075504 52 108 0.0 0.0 0.00 0.00 0.00 74 1017.4
20260906075006 53 108 0.0 0.0 0.00 0.00 0.00 74 1017.4
20260906074507 52 108 0.0 0.0 0.00 0.00 0.00 75 1017.3
20260906073504 52 108 0.0 0.0 0.00 0.00 0.00 76 1017.3
20260906072502 52 108 0.0 0.0 0.00 0.00 0.00 76 1017.4
20260906071504 52 108 0.0 0.0 0.00 0.00 0.00 76 1017.4
20260906070504 52 108 0.0 0.0 0.00 0.00 0.00 76 1017.3
20260906070007 52 108 0.0 0.0 0.00 0.00 0.00 76 1017.2
20260906065506 52 108 0.0 0.0 0.00 0.00 0.00 76 1017.2
20260906065008 52 108 0.0 0.0 0.00 0.00 0.00 76 1017.3
20260906064005 52 108 0.0 0.0 0.00 0.00 0.00 77 1017.3
20260906063503 52 108 0.0 0.0 0.00 0.00 0.00 77 1017.2
20260906063005 52 108 0.0 0.0 0.00 0.00 0.00 77 1017.4
20260906061505 52 108 0.0 0.0 0.00 0.00 0.00 77 1017.4
20260906061006 51 108 0.0 0.0 0.00 0.00 0.00 77 1017.3
20260906060505 52 108 0.0 0.0 0.00 0.00 0.00 76 1017.4
20260906055504 52 108 0.0 0.0 0.00 0.00 0.00 76 1017.4
20260906055004 52 108 0.0 0.0 0.00 0.00 0.00 76 1017.4
20260906054503 52 108 0.0 0.0 0.00 0.00 0.00 76 1017.4
20260906054005 52 108 0.0 0.0 0.00 0.00 0.00 76 1017.4
20260906053502 52 108 0.0 1.0 0.00 0.00 0.00 76 1017.5
20260906053003 52 108 0.0 1.0 0.00 0.00 0.00 76 1017.6
20260906052504 52 108 0.0 1.0 0.00 0.00 0.00 76 1017.6
20260906052002 52 108 0.0 1.0 0.00 0.00 0.00 76 1017.6
20260906051502 52 108 0.0 1.0 0.00 0.00 0.00 75 1017.7
20260906051006 52 108 0.0 1.0 0.00 0.00 0.00 75 1017.7
20260906050007 52 108 0.0 0.0 0.00 0.00 0.00 74 1017.8
20260906045504 53 108 0.0 0.0 0.00 0.00 0.00 74 1017.8
20260906045006 53 108 0.0 1.0 0.00 0.00 0.00 73 1017.7
20260906044005 53 108 0.0 1.0 0.00 0.00 0.00 73 1017.7
20260906043505 53 108 0.0 1.0 0.00 0.00 0.00 73 1017.6
20260906043006 53 108 0.0 1.0 0.00 0.00 0.00 73 1017.5
20260906042502 53 108 0.0 1.0 0.00 0.00 0.00 72 1017.5
20260906042006 54 108 0.0 1.0 0.00 0.00 0.00 72 1017.5
20260906041503 54 108 0.0 1.0 0.00 0.00 0.00 72 1017.5
20260906041006 53 108 0.0 0.0 0.00 0.00 0.00 72 1017.5
20260906040504 53 108 0.0 0.0 0.00 0.00 0.00 71 1017.6
20260906040008 54 108 0.0 0.0 0.00 0.00 0.00 71 1017.6
20260906035504 54 108 0.0 0.0 0.00 0.00 0.00 71 1017.5
20260906035008 54 108 0.0 0.0 0.00 0.00 0.00 71 1017.6
20260906034505 54 108 0.0 0.0 0.00 0.00 0.00 71 1017.5
20260906034004 54 108 0.0 0.0 0.00 0.00 0.00 70 1017.5
20260906033504 55 108 0.0 0.0 0.00 0.00 0.00 70 1017.5
20260906033007 55 108 0.0 0.0 0.00 0.00 0.00 70 1017.5
20260906032004 56 108 0.0 0.0 0.00 0.00 0.00 68 1017.4
20260906031503 56 108 0.0 0.0 0.00 0.00 0.00 67 1017.4
20260906031005 56 108 0.0 0.0 0.00 0.00 0.00 67 1017.4
20260906030004 57 108 0.0 1.0 0.00 0.00 0.00 66 1017.4
20260906025503 57 108 0.0 1.0 0.00 0.00 0.00 66 1017.4
20260906025007 57 108 0.0 0.0 0.00 0.00 0.00 66 1017.4
20260906024504 58 108 0.0 0.0 0.00 0.00 0.00 66 1017.3
20260906024003 58 108 0.0 1.0 0.00 0.00 0.00 65 1017.4
20260906023503 58 108 0.0 1.0 0.00 0.00 0.00 65 1017.5
20260906022504 59 109 0.0 0.0 0.00 0.00 0.00 64 1017.4
20260906021503 60 109 0.0 0.0 0.00 0.00 0.00 62 1017.5
20260906021003 60 109 0.0 0.0 0.00 0.00 0.00 62 1017.4
20260906020007 61 109 0.0 0.0 0.00 0.00 0.00 61 1017.5
20260906015503 61 109 0.0 0.0 0.00 0.00 0.00 59 1017.5
20260906015005 61 109 0.0 0.0 0.00 0.00 0.00 59 1017.5
20260906014503 62 109 0.0 0.0 0.00 0.00 0.00 58 1017.5
20260906014004 62 109 0.0 1.0 0.00 0.00 0.00 57 1017.5
20260906013503 63 109 0.0 2.0 0.00 0.00 0.00 56 1017.6
20260906013004 63 88 0.0 3.0 0.00 0.00 0.00 55 1017.5
20260906012503 63 101 0.0 3.0 0.00 0.00 0.00 55 1017.6
20260906012003 64 115 0.0 1.0 0.00 0.00 0.00 54 1017.6
20260906011506 64 115 0.0 1.0 0.00 0.00 0.00 54 1017.5
20260906011004 64 115 0.0 2.0 0.00 0.00 0.00 53 1017.5
20260906010503 64 127 1.0 7.0 0.00 0.00 0.00 51 1017.5
20260906010008 65 250 1.0 7.0 0.00 0.00 0.00 51 1017.5
20260906005503 65 255 0.0 4.0 0.00 0.00 0.00 51 1017.5
20260906005003 65 226 0.0 3.0 0.00 0.00 0.00 51 1017.5
20260906004500 66 106 0.0 4.0 0.00 0.00 0.00 50 1017.6
20260906004003 66 254 1.0 4.0 0.00 0.00 0.00 50 1017.6
20260906003504 66 236 1.0 3.0 0.00 0.00 0.00 49 1017.5
20260906003001 67 203 0.0 3.0 0.00 0.00 0.00 49 1017.5
20260906002503 67 200 0.0 2.0 0.00 0.00 0.00 48 1017.4
20260906002003 67 124 1.0 5.0 0.00 0.00 0.00 48 1017.4
20260906001503 67 161 1.0 5.0 0.00 0.00 0.00 48 1017.6
20260906001004 68 171 1.0 3.0 0.00 0.00 0.00 47 1017.5
20260906000503 68 260 1.0 2.0 0.00 0.00 0.00 47 1017.5
20260906000008 68 96 1.0 7.0 0.00 0.00 0.00 46 1017.4
20260905235501 69 129 1.0 7.0 0.00 0.00 0.00 46 1017.5
20260905235000 69 130 1.0 4.0 0.00 0.00 0.00 45 1017.5
20260905234005 70 116 1.0 8.0 0.00 0.00 0.00 44 1017.4
20260905233507 70 313 2.0 5.0 0.00 0.00 0.00 44 1017.4
20260905232502 71 143 1.0 6.0 0.00 0.00 0.00 42 1017.5
20260905231504 72 148 1.0 9.0 0.00 0.00 0.00 41 1017.5
20260905231004 73 133 1.0 5.0 0.00 0.00 0.00 41 1017.5
20260905230503 72 314 2.0 5.0 0.00 0.00 0.00 41 1017.5
20260905230009 72 156 2.0 7.0 0.00 0.00 0.00 41 1017.5
20260905225503 72 276 2.0 5.0 0.00 0.00 0.00 42 1017.8
20260905225004 71 150 3.0 8.0 0.00 0.00 0.00 43 1017.7
20260905224503 71 136 3.0 8.0 0.00 0.00 0.00 43 1017.8
20260905224004 72 148 2.0 8.0 0.00 0.00 0.00 42 1017.7
20260905223004 72 86 2.0 7.0 0.00 0.00 0.00 42 1017.7
20260905222500 72 90 2.0 7.0 0.00 0.00 0.00 42 1017.7
20260905222003 72 124 2.0 6.0 0.00 0.00 0.00 42 1017.7
20260905221459 72 304 2.0 10.0 0.00 0.00 0.00 41 1017.6
20260905221004 73 238 2.0 10.0 0.00 0.00 0.00 40 1017.7
20260905220459 73 246 2.0 6.0 0.00 0.00 0.00 42 1017.7
20260905220002 72 229 2.0 7.0 0.00 0.00 0.00 42 1017.8
20260905215505 72 183 2.0 6.0 0.00 0.00 0.00 42 1017.8
20260905215003 71 194 2.0 6.0 0.00 0.00 0.00 43 1017.8
20260905213007 70 131 3.0 9.0 0.00 0.00 0.00 45 1017.8
20260905212504 71 114 3.0 9.0 0.00 0.00 0.00 43 1017.8
20260905212002 71 69 3.0 9.0 0.00 0.00 0.00 43 1017.8
20260905211505 71 139 3.0 9.0 0.00 0.00 0.00 42 1017.8
20260905211004 71 266 2.0 7.0 0.00 0.00 0.00 43 1017.9
20260905210507 71 312 2.0 7.0 0.00 0.00 0.00 44 1017.8
20260905210000 70 229 2.0 6.0 0.00 0.00 0.00 45 1017.8
20260905205502 70 120 2.0 6.0 0.00 0.00 0.00 44 1017.9
20260905205003 71 175 2.0 5.0 0.00 0.00 0.00 43 1017.8
20260905204507 72 236 2.0 5.0 0.00 0.00 0.00 44 1017.9
20260905204007 72 208 2.0 12.0 0.00 0.00 0.00 43 1017.9
20260905203507 72 214 3.0 12.0 0.00 0.00 0.00 43 1017.9
20260905203004 71 245 3.0 9.0 0.00 0.00 0.00 44 1017.9
20260905202504 71 238 2.0 8.0 0.00 0.00 0.00 44 1017.7
20260905202006 71 222 2.0 9.0 0.00 0.00 0.00 46 1017.8
20260905201505 70 240 3.0 9.0 0.00 0.00 0.00 46 1017.8
20260905201007 69 240 3.0 11.0 0.00 0.00 0.00 46 1017.7
20260905200508 69 151 2.0 11.0 0.00 0.00 0.00 46 1017.8
20260905200008 69 145 2.0 9.0 0.00 0.00 0.00 47 1017.8
20260905195506 70 108 2.0 8.0 0.00 0.00 0.00 46 1017.9
20260905195005 71 272 2.0 5.0 0.00 0.00 0.00 45 1017.8
20260905194009 72 207 3.0 10.0 0.00 0.00 0.00 44 1017.9
20260905193503 71 64 3.0 13.0 0.00 0.00 0.00 45 1017.8
20260905193004 71 217 3.0 13.0 0.00 0.00 0.00 44 1017.9
20260905192506 70 218 3.0 11.0 0.00 0.00 0.00 45 1017.9
20260905192019 71 301 2.0 10.0 0.00 0.00 0.00 45 1018.1
20260905191505 71 160 2.0 6.0 0.00 0.00 0.00 44 1018.0
20260905191005 71 140 2.0 7.0 0.00 0.00 0.00 43 1018.1
20260905190504 72 141 2.0 8.0 0.00 0.00 0.00 44 1018.0